Powrót do katalogu

THORAD AGENA D DEB

AktywnySSO
NORAD 4914·DEBRIS·🇺🇸 United States

Wystrzelony Apr 8, 1970 z Vandenberg Space Force Base

Loading…

Następne Przeloty (najbliższe 24 godziny)

TLE

ŚwieżeSource: Space-Track

Epoka: Sep 14, 2026, 08:39 UTC

1 04914U 70025FL  26257.36059087  .00002779  00000-0  30921-2 0  9994
2 04914  99.4428 201.8562 0080388 342.6850 170.3391 13.70932285786998

Śledź THORAD AGENA D DEB w czasie rzeczywistym z AllMySat

Download on the App Store